Overview Statistics Trail Chart Weather Telemetry Raw packets
 

This is the latest recevied weather packets stored in our database for station/object KO4DYK. If no packets are shown the sender has not sent any weather packets the latest 10 day(s).

<< 31 32 33 34 35 36 37 >>
Time Temp. Humidity Pressure Rain* Wind** Luminosity Snow
1788446465 33.33° C 68% 1018.7 hPa 0 mm - 436 W/m² -
1788446161 33.33° C 70% 1018.9 hPa 0 mm - 402 W/m² -
1788445856 32.78° C 70% 1018.9 hPa 0 mm - 366 W/m² -
1788445551 33.33° C 72% 1018.9 hPa 0 mm - 348 W/m² -
1788445248 32.78° C 71% 1018.8 hPa 0 mm - 324 W/m² -
1788444943 32.78° C 71% 1018.8 hPa 0 mm - 306 W/m² -
1788444639 32.78° C 74% 1018.4 hPa 0 mm - 294 W/m² -
1788444334 31.67° C 76% 1018.6 hPa 0 mm - 287 W/m² -
1788444029 31.11° C 78% 1018.7 hPa 0 mm - 266 W/m² -
1788443725 30° C 81% 1018.7 hPa 0 mm - 244 W/m² -
1788443425 30° C 84% 1018.8 hPa 0 mm - 233 W/m² -
1788443124 29.44° C 86% 1018.8 hPa 0 mm - 184 W/m² -
1788442820 28.89° C 86% 1018.8 hPa 0 mm - 177 W/m² -
1788442518 27.78° C 92% 1018.9 hPa 0 mm - 192 W/m² -
1788442213 26.67° C 94% 1018.9 hPa 0 mm - 164 W/m² -
1788441908 26.11° C 95% 1019.1 hPa 0 mm - 149 W/m² -
1788441603 25.56° C 96% 1018.8 hPa 0 mm - 99 W/m² -
1788441298 25° C 98% 1018.8 hPa 0 mm - 72 W/m² -
1788440996 25° C 99% 1018.8 hPa 0 mm - 69 W/m² -
1788440692 25° C 99% 1019 hPa 0 mm - 66 W/m² -
1788440391 24.44° C 99% 1019.1 hPa 0 mm - 63 W/m² -
1788440090 23.89° C 99% 1019 hPa 0 mm - 58 W/m² -
1788439791 23.89° C 99% 1019 hPa 0 mm - 55 W/m² -
1788439486 23.33° C 99% 1019.1 hPa 0 mm - 52 W/m² -
1788439184 23.33° C 99% 1019 hPa 0 mm - 46 W/m² -

* Rain latest hour (hover to see other rain measurements)
** Current wind speed in m/s (hover to see current wind gust speed)